TimeCDT,TemperatureF,Dew PointF,Humidity,Sea Level PressureIn,VisibilityMPH,Wind Direction,Wind SpeedMPH,Gust SpeedMPH,PrecipitationIn,Events,Conditions,WindDirDegrees,DateUTC
12:15 AM,61.5,52.7,73,29.86,10.0,WSW,6.9,-,N/A,,Mostly Cloudy,250,2013-05-23 05:15:00
12:35 AM,61.0,52.2,73,29.87,10.0,West,9.2,-,N/A,,Mostly Cloudy,260,2013-05-23 05:35:00
12:55 AM,61.0,52.0,72,29.87,10.0,West,10.4,-,N/A,,Overcast,260,2013-05-23 05:55:00
1:15 AM,60.8,52.2,73,29.87,10.0,West,9.2,-,0.01,,Overcast,260,2013-05-23 06:15:00
1:35 AM,60.8,52.0,73,29.87,10.0,West,9.2,-,0.01,,Overcast,260,2013-05-23 06:35:00
1:55 AM,60.4,52.0,74,29.86,10.0,WSW,9.2,-,0.01,,Overcast,250,2013-05-23 06:55:00
2:15 AM,59.9,51.8,75,29.87,10.0,West,10.4,-,N/A,,Mostly Cloudy,260,2013-05-23 07:15:00
2:35 AM,59.4,51.3,75,29.87,10.0,West,10.4,-,N/A,,Scattered Clouds,260,2013-05-23 07:35:00
2:55 AM,58.8,50.4,73,29.87,10.0,West,11.5,-,N/A,,Clear,260,2013-05-23 07:55:00
3:15 AM,58.5,50.2,74,29.87,10.0,West,10.4,-,N/A,,Clear,270,2013-05-23 08:15:00
3:35 AM,58.3,50.5,75,29.87,10.0,West,8.1,-,N/A,,Clear,260,2013-05-23 08:35:00
3:55 AM,58.3,50.5,75,29.88,10.0,West,11.5,-,N/A,,Scattered Clouds,280,2013-05-23 08:55:00
4:15 AM,58.1,50.9,77,29.88,10.0,West,9.2,-,N/A,,Mostly Cloudy,270,2013-05-23 09:15:00
4:35 AM,58.1,50.9,77,29.88,10.0,West,8.1,-,N/A,,Overcast,270,2013-05-23 09:35:00
4:55 AM,58.1,50.9,77,29.89,10.0,West,8.1,-,N/A,,Scattered Clouds,260,2013-05-23 09:55:00
5:15 AM,58.3,51.1,77,29.90,10.0,West,11.5,-,N/A,,Clear,270,2013-05-23 10:15:00
5:35 AM,58.1,50.9,77,29.90,10.0,West,11.5,-,N/A,,Scattered Clouds,270,2013-05-23 10:35:00
5:55 AM,58.1,51.1,77,29.91,10.0,West,12.7,-,N/A,,Mostly Cloudy,270,2013-05-23 10:55:00
6:15 AM,58.1,51.1,77,29.91,10.0,West,13.8,-,N/A,,Overcast,270,2013-05-23 11:15:00
6:35 AM,58.1,51.3,78,29.92,10.0,West,10.4,16.1,N/A,,Overcast,260,2013-05-23 11:35:00
6:55 AM,58.1,51.6,79,29.93,10.0,West,12.7,16.1,N/A,,Overcast,270,2013-05-23 11:55:00
7:15 AM,58.3,51.8,79,29.93,10.0,West,13.8,-,N/A,,Overcast,270,2013-05-23 12:15:00
7:35 AM,58.6,52.0,79,29.94,10.0,West,11.5,-,N/A,,Overcast,270,2013-05-23 12:35:00
7:55 AM,58.6,51.8,78,29.95,10.0,West,13.8,-,N/A,,Overcast,280,2013-05-23 12:55:00
8:15 AM,59.0,51.8,77,29.95,10.0,WNW,16.1,23.0,N/A,,Overcast,290,2013-05-23 13:15:00
8:35 AM,59.0,52.2,78,29.96,10.0,WNW,17.3,21.9,N/A,,Overcast,290,2013-05-23 13:35:00
8:55 AM,58.5,52.7,81,29.97,10.0,West,15.0,-,N/A,,Overcast,280,2013-05-23 13:55:00
9:15 AM,59.0,53.6,82,29.98,10.0,West,13.8,-,N/A,,Overcast,280,2013-05-23 14:15:00
9:35 AM,58.3,54.7,88,29.98,3.0,West,17.3,-,N/A,,Overcast,280,2013-05-23 14:35:00
9:55 AM,58.3,55.6,91,29.99,7.0,WNW,13.8,19.6,N/A,,Overcast,290,2013-05-23 14:55:00
10:15 AM,59.0,55.8,89,29.99,10.0,WNW,10.4,17.3,N/A,,Overcast,290,2013-05-23 15:15:00
10:35 AM,59.4,56.3,90,30.00,5.0,WNW,15.0,23.0,N/A,,Overcast,290,2013-05-23 15:35:00
10:55 AM,59.4,56.7,91,30.00,2.0,NW,16.1,23.0,N/A,,Overcast,320,2013-05-23 15:55:00
11:15 AM,59.7,56.7,90,30.01,10.0,NNW,15.0,20.7,N/A,,Overcast,330,2013-05-23 16:15:00
11:35 AM,60.8,56.3,85,30.01,10.0,North,17.3,24.2,N/A,,Overcast,350,2013-05-23 16:35:00
11:55 AM,59.4,56.7,91,30.03,2.5,North,13.8,-,N/A,Rain,Rain,360,2013-05-23 16:55:00
12:15 PM,60.6,57.0,88,30.04,10.0,North,16.1,19.6,N/A,,Overcast,360,2013-05-23 17:15:00
12:35 PM,60.1,56.3,87,30.06,7.0,North,12.7,21.9,N/A,,Overcast,350,2013-05-23 17:35:00
12:55 PM,60.1,55.4,85,30.07,10.0,North,12.7,19.6,N/A,,Overcast,350,2013-05-23 17:55:00
1:15 PM,59.0,55.8,89,30.08,5.0,NNW,13.8,-,N/A,Rain,Light Rain,340,2013-05-23 18:15:00
1:35 PM,59.7,55.4,86,30.09,7.0,North,9.2,-,N/A,,Overcast,360,2013-05-23 18:35:00
1:55 PM,59.4,54.1,83,30.10,10.0,North,10.4,19.6,N/A,,Overcast,350,2013-05-23 18:55:00
2:15 PM,61.2,53.8,77,30.10,10.0,North,9.2,-,N/A,,Overcast,350,2013-05-23 19:15:00
2:35 PM,60.3,53.2,78,30.11,10.0,North,8.1,-,N/A,,Overcast,350,2013-05-23 19:35:00
2:55 PM,60.8,53.6,77,30.12,10.0,North,10.4,-,N/A,,Overcast,350,2013-05-23 19:55:00
3:15 PM,61.3,52.9,74,30.13,10.0,North,12.7,-,N/A,,Overcast,350,2013-05-23 20:15:00
3:35 PM,61.7,52.5,72,30.13,10.0,North,11.5,-,N/A,,Overcast,360,2013-05-23 20:35:00
3:55 PM,62.8,52.0,68,30.13,10.0,North,12.7,17.3,N/A,,Overcast,360,2013-05-23 20:55:00
4:15 PM,63.5,51.8,66,30.14,10.0,NNW,11.5,-,N/A,,Mostly Cloudy,340,2013-05-23 21:15:00
4:35 PM,63.5,51.4,65,30.14,10.0,North,10.4,17.3,N/A,,Overcast,360,2013-05-23 21:35:00
4:55 PM,63.5,50.7,63,30.15,10.0,North,10.4,-,N/A,,Overcast,10,2013-05-23 21:55:00
5:15 PM,65.7,51.3,60,30.15,10.0,North,13.8,-,N/A,,Overcast,360,2013-05-23 22:15:00
5:35 PM,65.8,51.1,59,30.15,10.0,NNE,13.8,19.6,N/A,,Overcast,30,2013-05-23 22:35:00
5:55 PM,64.8,50.4,60,30.15,10.0,North,12.7,-,N/A,,Mostly Cloudy,10,2013-05-23 22:55:00
6:15 PM,64.9,50.0,58,30.17,10.0,NNE,11.5,17.3,N/A,,Mostly Cloudy,20,2013-05-23 23:15:00
6:35 PM,64.6,50.2,60,30.17,10.0,North,8.1,-,N/A,,Scattered Clouds,360,2013-05-23 23:35:00
6:55 PM,64.2,48.6,57,30.18,10.0,NNE,9.2,-,N/A,,Scattered Clouds,20,2013-05-23 23:55:00
7:15 PM,63.7,48.9,59,30.18,10.0,North,9.2,-,N/A,,Scattered Clouds,10,2013-05-24 00:15:00
7:35 PM,62.2,49.5,63,30.19,10.0,NNE,9.2,-,N/A,,Scattered Clouds,30,2013-05-24 00:35:00
7:55 PM,60.8,49.6,67,30.19,10.0,NE,8.1,-,N/A,,Clear,40,2013-05-24 00:55:00
8:15 PM,59.2,50.0,72,30.20,10.0,NE,8.1,-,N/A,,Clear,50,2013-05-24 01:15:00
8:35 PM,58.1,49.5,73,30.20,10.0,ENE,9.2,-,N/A,,Clear,60,2013-05-24 01:35:00
8:55 PM,56.8,49.5,76,30.21,10.0,ENE,6.9,-,N/A,,Clear,70,2013-05-24 01:55:00
9:15 PM,55.0,49.3,81,30.21,10.0,ENE,6.9,-,N/A,,Clear,70,2013-05-24 02:15:00
9:35 PM,54.9,49.1,81,30.22,10.0,ENE,8.1,-,N/A,,Clear,70,2013-05-24 02:35:00
9:55 PM,54.5,49.1,82,30.23,10.0,ENE,8.1,-,N/A,,Clear,70,2013-05-24 02:55:00
10:15 PM,53.4,48.6,84,30.23,10.0,East,5.8,-,N/A,,Clear,80,2013-05-24 03:15:00
10:35 PM,52.3,48.4,86,30.24,10.0,East,6.9,-,N/A,,Clear,80,2013-05-24 03:35:00
10:55 PM,51.8,48.2,88,30.24,10.0,East,6.9,-,N/A,,Clear,80,2013-05-24 03:55:00
11:15 PM,51.4,48.2,89,30.25,10.0,East,5.8,-,N/A,,Clear,80,2013-05-24 04:15:00
11:35 PM,50.9,47.7,89,30.26,10.0,East,5.8,-,N/A,,Clear,90,2013-05-24 04:35:00
11:55 PM,50.0,47.3,90,30.27,10.0,East,4.6,-,N/A,,Clear,100,2013-05-24 04:55:00